ATLAS 5 CENTAUR DEB, 46643

Orbit data source: Space-Track

ATLAS 5 CENTAUR DEB, 46643 is space debris in HEO originally from a launch on Wed, 17 Sep 2014 UTC launched from the Air Force Eastern Test Range (AFETR). Debris objects in space refer to the collection of defunct objects orbiting the Earth. Examples of debris include non-operational satellites, rocket bodies, and fragments generated from explosions, collisions, or faulty payload assembly.

Loading next visibility...
ATLAS 5 CENTAUR DEB details
Identifier
46643, 2014-055CT
Orbit
HEO
Last TLE update2 days ago
Origin
Flag of USULA (US)
ManufacturerUnknown
MissionSpacecraft
Bus & MotorUnknown
MassUnknown
Launch date (UTC)
2014-09-17 (10 years ago)
Launch vehicleUnknown
Launch site
Air Force Eastern Test Range (AFETR)
Object type
Payload
Rocket body
Debris
Shape & HBRUnknown
Radar Cross SectionRCS unknown

Expand to show TLE details & history

TLE from 2 days ago
0 ATLAS 5 CENTAUR DEB
1 46643U 14055CT  24345.37190197 -.00000019  00000-0  00000+0 0  9993
2 46643  19.7944 203.9668 4960618  65.2687 337.8577  1.85062658 28226
Epoch: 2024-12-10T08:55Z
Definitive object data (Epoch: 2024-12-10T08:55:32.33Z)
Latitude-0.00004°
Longitude-9.42451°
Altitude11,083.053 km
Speed5.606 km/s
True Right ascension13h 36m 10s
True Declination0° 00' 00"
Sunlit
Object was in daylight at TLE epoch
Visualization TLE readout
Latitude-8.2996°
Longitude-33.44843°
Altitude14,837.778 km
Speed4.832 km/s
Apparent Right ascension11h 35m 08s
Apparent Declination-15° 47' 19"
Sunlit
Object is in daylight
Visualization observer readout
Local Sidereal Time21:44:14
Azimuth307.04° NW
Elevation-55.883°
Doppler factor1
Orbital elements
Apogee altitude35,549.776 km
Perigee altitude7,744.994 km
Semi-major axis28,025.522 km
Eccentricity0.4960618
Inclination19.7944°
RAAN203.9668°
Arg. of periapsis65.2687°
True anomaly294.88995°
Mean anomaly337.8577°
Eccentric anomaly319.33783°
Mean motion0.46261 °/min
BSTARUnknown
Orbital period778.2 mins
Loading maneuver chart data...

ATLAS 5 CENTAUR DEB Visibility forecast

Observer location: undefined°, undefined

Span
Click to sort rows by Start time (UTC) header in descending order
Start Az.
Max El. time (UTC)
Max El. Az.
Max El.
End time (UTC)
End Az.
734 mins2024-12-12 00:51:04.166Z266.245° W2024-12-12 01:42:04.166Z200.04° SSW36.047°2024-12-12 13:05:04.166Z112.762° SE
|